User: anonymous   Login
Location: Unspecified
(0.0000°N, 0.0000°E)
Time: 19:04:07
(UTC+00:00)
Language:

UHF F/O F2 - Orbit

View from above orbital plane
View from above orbital plane
View from above satellite
View from above satellite

Ground track
Ground track

The orbit data is extracted from the following two-line orbital elements,

1 22787U 93056A   19083.12199637  .00000110  00000-0  00000+0 0  9999
2 22787  11.1266  18.3237 0003680   8.2877 227.3592  1.00277721 92163
Epoch (UTC): 24 March 2019 02:55:40
Eccentricity: 0.0003680
inclination: 11.1266°
perigee height: 35769 km
apogee height: 35800 km
right ascension of ascending node: 18.3237°
argument of perigee: 8.2877°
revolutions per day: 1.00277721
mean anomaly at epoch: 227.3592°
orbit number at epoch: 9216

The dashed part of the orbit path shows where the satellite is in the earth's shadow,  

DLR